| time (UTC) | temp C | wind direction | speed KPH | gust KPH | rain 1hr cm | rain 24hr cm | rain mn cm | humidity % | barometer mb |
| 20260507024546 | 8 | 278 | 3.2 | 8.0 | 0.00 | 0.00 | 0.00 | 50 | 1016.1 |
| 20260507023045 | 9 | 278 | 3.2 | 11.3 | 0.00 | 0.00 | 0.00 | 49 | 1015.8 |
| 20260507021544 | 9 | 281 | 3.2 | 12.9 | 0.00 | 0.00 | 0.00 | 48 | 1015.6 |
| 20260507020044 | 9 | 282 | 1.6 | 12.9 | 0.00 | 0.00 | 0.00 | 48 | 1015.4 |
| 20260507014548 | 10 | 4 | 8.0 | 17.7 | 0.00 | 0.00 | 0.00 | 48 | 1015.2 |
| 20260507013049 | 10 | 287 | 1.6 | 16.1 | 0.00 | 0.00 | 0.00 | 48 | 1015.1 |
| 20260507011538 | 10 | 297 | 6.4 | 16.1 | 0.00 | 0.00 | 0.00 | 46 | 1015.1 |
| 20260507010050 | 11 | 224 | 8.0 | 17.7 | 0.00 | 0.00 | 0.00 | 46 | 1014.9 |
| 20260507004535 | 11 | 299 | 9.7 | 17.7 | 0.00 | 0.00 | 0.00 | 45 | 1014.7 |
| 20260507003036 | 11 | 314 | 4.8 | 14.5 | 0.00 | 0.00 | 0.00 | 45 | 1014.6 |
| 20260507001535 | 11 | 317 | 8.0 | 27.4 | 0.00 | 0.00 | 0.00 | 44 | 1014.5 |
| 20260507000034 | 12 | 321 | 6.4 | 19.3 | 0.00 | 0.00 | 0.00 | 43 | 1014.2 |
| 20260506234536 | 12 | 252 | 6.4 | 16.1 | 0.00 | 0.00 | 0.00 | 43 | 1014.0 |
| 20260506233052 | 12 | 284 | 9.7 | 20.9 | 0.00 | 0.00 | 0.00 | 44 | 1014.0 |
| 20260506231536 | 12 | 264 | 8.0 | 20.9 | 0.00 | 0.00 | 0.00 | 43 | 1013.9 |
| 20260506230031 | 13 | 114 | 6.4 | 16.1 | 0.00 | 0.00 | 0.00 | 43 | 1013.8 |
| 20260506224531 | 12 | 311 | 6.4 | 29.0 | 0.00 | 0.00 | 0.00 | 42 | 1013.8 |
| 20260506223030 | 13 | 226 | 9.7 | 20.9 | 0.00 | 0.00 | 0.00 | 40 | 1013.7 |
| 20260506221532 | 13 | 319 | 11.3 | 25.7 | 0.00 | 0.00 | 0.00 | 40 | 1013.7 |
| 20260506220030 | 14 | 271 | 4.8 | 22.5 | 0.00 | 0.00 | 0.00 | 42 | 1013.6 |
| 20260506214529 | 14 | 297 | 8.0 | 24.1 | 0.00 | 0.00 | 0.00 | 40 | 1013.5 |
| 20260506213028 | 14 | 317 | 3.2 | 16.1 | 0.00 | 0.00 | 0.00 | 41 | 1013.4 |
| 20260506211529 | 14 | 298 | 3.2 | 16.1 | 0.00 | 0.00 | 0.00 | 41 | 1013.3 |
| 20260506210033 | 13 | 284 | 4.8 | 14.5 | 0.00 | 0.00 | 0.00 | 44 | 1013.6 |
| 20260506204526 | 13 | 295 | 4.8 | 24.1 | 0.00 | 0.00 | 0.00 | 45 | 1013.6 |
| 20260506203025 | 13 | 261 | 3.2 | 14.5 | 0.00 | 0.00 | 0.00 | 46 | 1013.9 |
| 20260506201530 | 13 | 258 | 4.8 | 16.1 | 0.00 | 0.00 | 0.00 | 46 | 1014.0 |
| 20260506200036 | 12 | 234 | 1.6 | 19.3 | 0.00 | 0.00 | 0.00 | 46 | 1014.3 |
| 20260506194524 | 12 | 272 | 8.0 | 22.5 | 0.00 | 0.00 | 0.00 | 45 | 1014.4 |
| 20260506193027 | 13 | 249 | 3.2 | 20.9 | 0.00 | 0.00 | 0.00 | 46 | 1014.4 |
| 20260506191523 | 13 | 310 | 1.6 | 16.1 | 0.00 | 0.00 | 0.00 | 44 | 1014.4 |
| 20260506190024 | 14 | 252 | 3.2 | 9.7 | 0.00 | 0.00 | 0.00 | 43 | 1014.3 |
| 20260506184520 | 13 | 204 | 6.4 | 14.5 | 0.00 | 0.00 | 0.00 | 41 | 1014.3 |
| 20260506183019 | 13 | 299 | 6.4 | 17.7 | 0.00 | 0.00 | 0.00 | 41 | 1014.3 |
| 20260506181521 | 13 | 268 | 3.2 | 14.5 | 0.00 | 0.00 | 0.00 | 44 | 1014.3 |
| 20260506180020 | 13 | 294 | 3.2 | 17.7 | 0.00 | 0.00 | 0.00 | 43 | 1014.4 |
| 20260506174518 | 13 | 285 | 4.8 | 22.5 | 0.00 | 0.00 | 0.00 | 42 | 1014.5 |
| 20260506173021 | 13 | 263 | 4.8 | 11.3 | 0.00 | 0.00 | 0.00 | 39 | 1014.6 |
| 20260506171516 | 13 | 225 | 6.4 | 14.5 | 0.00 | 0.00 | 0.00 | 39 | 1014.6 |
| 20260506170013 | 12 | 294 | 6.4 | 17.7 | 0.00 | 0.00 | 0.00 | 41 | 1014.5 |
| 20260506164515 | 12 | 269 | 4.8 | 19.3 | 0.00 | 0.00 | 0.00 | 42 | 1014.5 |
| 20260506163013 | 12 | 274 | 1.6 | 11.3 | 0.00 | 0.00 | 0.00 | 43 | 1014.4 |
| 20260506161510 | 12 | 245 | 6.4 | 17.7 | 0.00 | 0.00 | 0.00 | 42 | 1014.4 |
| 20260506160014 | 12 | 330 | 4.8 | 12.9 | 0.00 | 0.00 | 0.00 | 44 | 1014.5 |
| 20260506154508 | 12 | 285 | 3.2 | 9.7 | 0.00 | 0.00 | 0.00 | 44 | 1014.5 |
| 20260506153005 | 11 | 155 | 0.0 | 8.0 | 0.00 | 0.00 | 0.00 | 48 | 1014.6 |
| 20260506151507 | 11 | 319 | 0.0 | 6.4 | 0.00 | 0.00 | 0.00 | 47 | 1014.7 |
| 20260506150003 | 11 | 283 | 1.6 | 8.0 | 0.00 | 0.00 | 0.00 | 49 | 1014.7 |
| 20260506144600 | 11 | 77 | 0.0 | 3.2 | 0.00 | 0.00 | 0.00 | 50 | 1014.7 |
| 20260506143059 | 11 | 146 | 0.0 | 1.6 | 0.00 | 0.00 | 0.00 | 51 | 1014.7 |
| 20260506141610 | 10 | 121 | 0.0 | 3.2 | 0.00 | 0.00 | 0.00 | 53 | 1014.8 |
| 20260506140054 | 10 | 96 | 0.0 | 4.8 | 0.00 | 0.00 | 0.00 | 53 | 1014.7 |
| 20260506134551 | 9 | 89 | 1.6 | 4.8 | 0.00 | 0.13 | 0.00 | 55 | 1014.6 |
| 20260506133049 | 9 | 15 | 0.0 | 9.7 | 0.00 | 0.13 | 0.00 | 56 | 1014.1 |
| 20260506131547 | 9 | 112 | 1.6 | 6.4 | 0.00 | 0.13 | 0.00 | 57 | 1013.8 |
| 20260506130045 | 8 | 334 | 0.0 | 3.2 | 0.00 | 0.13 | 0.00 | 59 | 1013.7 |
| 20260506124544 | 8 | 14 | 0.0 | 3.2 | 0.00 | 0.18 | 0.00 | 63 | 1013.3 |
| 20260506123045 | 7 | 340 | 0.0 | 1.6 | 0.00 | 0.18 | 0.00 | 67 | 1013.4 |
| 20260506121543 | 7 | 89 | 0.0 | 0.0 | 0.00 | 0.18 | 0.00 | 70 | 1013.2 |
| 20260506120105 | 7 | 89 | 0.0 | 1.6 | 0.00 | 0.18 | 0.00 | 71 | 1013.1 |
| 20260506114537 | 6 | 89 | 0.0 | 0.0 | 0.00 | 0.18 | 0.00 | 70 | 1013.0 |
| 20260506113035 | 6 | 89 | 0.0 | 0.0 | 0.00 | 0.18 | 0.00 | 70 | 1012.9 |
| 20260506111533 | 6 | 89 | 0.0 | 0.0 | 0.00 | 0.18 | 0.00 | 69 | 1012.7 |
| 20260506110031 | 5 | 89 | 0.0 | 0.0 | 0.00 | 0.18 | 0.00 | 72 | 1012.4 |
| 20260506104530 | 5 | 89 | 0.0 | 0.0 | 0.00 | 0.18 | 0.00 | 72 | 1012.3 |
| 20260506103030 | 6 | 89 | 0.0 | 0.0 | 0.00 | 0.18 | 0.00 | 68 | 1011.9 |
| 20260506101523 | 6 | 89 | 0.0 | 1.6 | 0.00 | 0.18 | 0.00 | 67 | 1011.7 |
| 20260506100023 | 6 | 72 | 0.0 | 3.2 | 0.00 | 0.18 | 0.00 | 66 | 1011.8 |
| 20260506094530 | 6 | 93 | 0.0 | 1.6 | 0.00 | 0.18 | 0.00 | 67 | 1011.8 |
| 20260506093029 | 6 | 95 | 0.0 | 1.6 | 0.00 | 0.18 | 0.00 | 67 | 1011.8 |
| 20260506091516 | 7 | 91 | 0.0 | 1.6 | 0.00 | 0.18 | 0.00 | 65 | 1011.8 |
| 20260506090015 | 7 | 13 | 0.0 | 3.2 | 0.00 | 0.18 | 0.00 | 64 | 1011.8 |
| 20260506084514 | 7 | 44 | 0.0 | 6.4 | 0.00 | 0.18 | 0.00 | 64 | 1011.8 |
| 20260506083012 | 7 | 77 | 0.0 | 1.6 | 0.00 | 0.18 | 0.00 | 64 | 1011.6 |
| 20260506081509 | 7 | 11 | 0.0 | 6.4 | 0.00 | 0.18 | 0.00 | 62 | 1011.6 |
| 20260506073104 | 8 | 301 | 3.2 | 16.1 | 0.00 | 0.18 | 0.00 | 59 | 1010.6 |
| 20260506071558 | 9 | 17 | 6.4 | 19.3 | 0.00 | 0.18 | 0.00 | 59 | 1010.5 |
| 20260506070115 | 8 | 11 | 6.4 | 16.1 | 0.00 | 0.18 | 0.00 | 61 | 1010.5 |
| 20260506061549 | 10 | 19 | 0.0 | 4.8 | 0.00 | 0.18 | 0.00 | 62 | 1010.5 |
| 20260506044550 | 10 | 276 | 0.0 | 0.0 | 0.00 | 0.18 | 0.18 | 63 | 1009.9 |
| 20260506043037 | 10 | 276 | 0.0 | 3.2 | 0.00 | 0.18 | 0.18 | 60 | 1010.0 |
| 20260506041546 | 10 | 285 | 0.0 | 1.6 | 0.00 | 0.18 | 0.18 | 60 | 1010.2 |
| 20260506040041 | 10 | 273 | 0.0 | 1.6 | 0.00 | 0.18 | 0.18 | 61 | 1010.4 |
| 20260506034534 | 10 | 293 | 0.0 | 1.6 | 0.00 | 0.18 | 0.18 | 63 | 1010.0 |
| 20260506033033 | 10 | 293 | 0.0 | 1.6 | 0.00 | 0.18 | 0.18 | 63 | 1010.0 |
| 20260506031541 | 10 | 293 | 0.0 | 0.0 | 0.00 | 0.18 | 0.18 | 61 | 1010.0 |
| 20260506030032 | 10 | 293 | 0.0 | 0.0 | 0.00 | 0.18 | 0.18 | 56 | 1009.8 |